Regional Weather Roundup
Issued by NWS

Home | Current Version | Previous Version | Graphics & Text | Print | Product List | Glossary On
Versions: 1 2 3 4 5 6 7 8 9 10 11 12 13 14 15 16 17 18 19 20 21 22 23 24 25 26 27 28 29 30 31 32 33 34 35 36 37 38 39 40 41 42 43 44 45 46 47 48 49 50
000
ASUS44 KMEG 300610
RWRTN
TENNESSEE HOURLY STATE WEATHER ROUNDUP
NATIONAL WEATHER SERVICE MEMPHIS TN
100 AM CDT THU JUL 30 2015

TNZ002-004-019-021-049-052-054-088>092-300700-
WEST TENNESSEE

CITY           SKY/WX    TMP DP  RH WIND       PRES   REMARKS
MEMPHIS INTL   PTCLDY    87  74  64 NE8       30.05R HX  95
NWS MEMPHIS      N/A     84 N/A N/A MISG        N/A
JACKSON        PTCLDY    81  75  82 N6        30.04F
DYERSBURG        N/A    N/A N/A N/A MISG        N/A
PARIS          PTCLDY    73  72  94 CALM      30.05F
$$

TNZ008-025-027-028-033-062-065-066-300700-
NORTH MIDDLE TENNESSEE

CITY           SKY/WX    TMP DP  RH WIND       PRES   REMARKS
NASHVILLE      PTCLDY    79  72  79 N5        30.01F
CLARKSVILLE    PTCLDY    74  72  93 N3        30.03F
SMYRNA         PTCLDY    78  73  84 CALM      30.02F
CROSSVILLE     PTCLDY    73  68  84 NW6       30.08R
$$

TNZ061-075-076-078-094-096-097-300700-
SOUTH MIDDLE TENNESSEE

CITY           SKY/WX    TMP DP  RH WIND       PRES   REMARKS
FAYETTEVILLE   CLEAR     79  75  89 CALM      30.03F
TULLAHOMA      CLEAR     75  72  88 CALM      30.04F
WINCHESTER     CLEAR     77  75  94 CALM      30.02F
MCMINNVILLE    CLEAR     73  73 100 VRB5      30.03S
COLUMBIA       CLEAR     75  75 100 CALM      30.02F
SHELBYVILLE    CLEAR     77  75  94 CALM      30.02F
$$

TNZ017-018-042-046-047-300700-
NORTHEAST TENNESSEE

CITY           SKY/WX    TMP DP  RH WIND       PRES   REMARKS
TRI CITIES     PTCLDY    74  71  91 CALM      30.03F
ELIZABETHTON   PTCLDY    72  72 100 CALM      30.05S
$$

TNZ012-013-036-069-073-074-300700-
CENTRAL EAST TENNESSEE

CITY           SKY/WX    TMP DP  RH WIND       PRES   REMARKS
KNOXVILLE      PTCLDY    78  74  87 SE3       29.98F
OAK RIDGE      CLEAR     78  74  87 CALM      29.99F
GATLINBURG     PTCLDY    75  70  83 CALM      29.99F
$$

TNZ083-085-099-300700-
SOUTHEAST TENNESSEE

CITY           SKY/WX    TMP DP  RH WIND       PRES   REMARKS
CHATTANOOGA    PTCLDY    80  74  81 S7        29.97F
$$

SKY/WX REPORTED AS FAIR MEANS FEW OR NO CLOUDS BELOW
12 THOUSAND FEET.



USA.gov is the U.S. government's official web portal to all federal, state and local government web resources and services.